Temp
3 2 2 2 2 2 2 2 2 2 2 2 2 2 2 2 2 1 1 1 1 1 1 1 1 0 0
2 2 2 2 1 2 1 2 2 2 2 2 2 1 2 1 1 1 1 1 1 0 0 0 0 -1 -1
1 1 1 2 2 1 1 1 1 1 1 1 1 1 1 1 1 -0 1 1 0 0 -0 -1 -1 -1 -1
1 0 1 1 1 0 0 0 0 1 1 -0 0 0 0 1 0 0 -0 0 -0 -1 -1 -1 -1 -2 -2
1 0 0 0 -0 -0 -1 -1 -0 -0 -0 -0 -0 -0 -1 -0 -1 -1 -1 -1 -1 -1 -1 -1 -1 -1 -2
1 1 0 0 -0 -0 -1 -1 -1 -1 -1 -1 -0 -0 -1 -1 -1 -1 -1 -1 -2 -2 -2 -2 -2 -2 -2
-0 -1 -1 -1 -1 -1 -1 -2 -1 -1 -1 -1 -1 -1 -2 -2 -2 -2 -2 -2 -2 -2 -3 -3 -2 -3 -3
-1 -2 -2 -2 -2 -2 -2 -2 -2 -2 -1 -2 -2 -2 -3 -3 -3 -3 -2 -3 -3 -3 -3 -3 -3 -4 -4
-2 -2 -2 -2 -2 -2 -2 -2 -2 -2 -2 -2 -3 -3 -4 -5 -4 -3 -3 -4 -3 -3 -4 -4 -4 -5 -5
-3 -3 -3 -3 -3 -2 -2 -2 -2 -2 -2 -3 -3 -4 -5 -5 -5 -4 -5 -4 -4 -4 -4 -4 -5 -6 -6
-3 -4 -4 -4 -4 -3 -3 -3 -3 -2 -2 -3 -4 -4 -4 -5 -6 -5 -5 -5 -5 -5 -5 -5 -6 -6 -7
-4 -4 -3 -4 -4 -3 -3 -3 -3 -3 -2 -3 -3 -3 -3 -5 -5 -5 -5 -5 -5 -6 -6 -6 -6 -7 -7
-4 -3 -4 -3 -5 -4 -4 -3 -3 -3 -3 -3 -3 -3 -4 -3 -4 -3 -4 -5 -5 -6 -6 -6 -7 -7 -7
-4 -4 -4 -4 -5 -5 -4 -4 -4 -4 -4 -4 -3 -3 -4 -4 -4 -3 -4 -5 -6 -6 -6 -7 -7 -7 -7
-4 -4 -5 -5 -5 -5 -5 -5 -4 -5 -5 -5 -5 -5 -4 -5 -4 -5 -5 -6 -6 -7 -7 -7 -7 -7 -7
-5 -5 -5 -6 -5 -6 -6 -5 -5 -5 -5 -6 -6 -6 -5 -5 -5 -5 -6 -7 -7 -7 -7 -8 -8 -8 -7
-6 -6 -6 -6 -6 -6 -6 -6 -6 -7 -7 -6 -5 -5 -5 -5 -6 -6 -7 -7 -7 -8 -8 -8 -8 -8 -7
Height
1501 1502 1501 1502 1502 1501 1501 1502 1502 1502 1502 1502 1502 1502 1502 1502 1503 1503 1503 1500 1500 1500 1498 1496 1497 1497 1497
1495 1496 1496 1496 1497 1497 1497 1498 1499 1498 1499 1498 1498 1496 1498 1499 1500 1500 1500 1498 1498 1498 1497 1496 1495 1495 1496
1486 1489 1489 1491 1491 1492 1493 1492 1495 1494 1494 1495 1496 1493 1492 1494 1495 1498 1499 1496 1496 1496 1495 1495 1495 1495 1496
1479 1481 1483 1485 1484 1486 1486 1486 1489 1487 1488 1491 1492 1492 1489 1491 1490 1495 1496 1495 1494 1494 1494 1494 1494 1494 1495
1473 1474 1475 1479 1480 1481 1481 1483 1480 1482 1482 1484 1486 1484 1486 1485 1488 1492 1493 1493 1493 1493 1493 1493 1493 1493 1493
1467 1468 1468 1471 1474 1476 1477 1477 1476 1476 1477 1480 1481 1480 1484 1485 1487 1490 1491 1491 1491 1492 1493 1493 1493 1493 1493
1460 1463 1463 1465 1469 1471 1470 1469 1471 1474 1475 1475 1478 1478 1481 1484 1486 1488 1489 1490 1491 1491 1491 1492 1492 1492 1492
1453 1458 1457 1461 1463 1465 1467 1465 1467 1469 1471 1472 1475 1478 1480 1482 1484 1486 1488 1489 1490 1490 1490 1490 1490 1490 1491
1449 1451 1452 1457 1458 1460 1461 1460 1462 1464 1467 1470 1473 1476 1479 1481 1483 1484 1486 1488 1489 1490 1489 1490 1489 1489 1490
1445 1447 1449 1451 1453 1454 1455 1457 1458 1460 1463 1466 1469 1473 1478 1480 1481 1483 1485 1487 1488 1489 1489 1489 1489 1490 1490
1441 1443 1445 1446 1445 1448 1450 1452 1453 1455 1457 1460 1464 1467 1470 1475 1479 1482 1484 1486 1487 1487 1488 1488 1489 1490 1492
1438 1440 1441 1441 1442 1443 1445 1446 1448 1450 1453 1456 1459 1463 1467 1471 1476 1480 1482 1484 1485 1486 1486 1488 1489 1490 1491
1436 1437 1438 1438 1439 1440 1442 1443 1445 1447 1450 1453 1458 1462 1467 1470 1473 1476 1479 1481 1483 1484 1485 1487 1489 1490 1491
1434 1435 1436 1436 1437 1439 1440 1441 1443 1445 1449 1452 1456 1460 1465 1469 1472 1475 1477 1479 1480 1482 1484 1486 1488 1490 1491
1432 1434 1435 1436 1437 1438 1440 1441 1443 1445 1448 1452 1456 1460 1464 1468 1471 1473 1475 1477 1479 1481 1483 1485 1487 1489 1490
1432 1433 1434 1436 1438 1440 1442 1443 1445 1447 1450 1453 1457 1461 1465 1468 1471 1472 1474 1476 1478 1480 1482 1484 1486 1488 1489
1432 1434 1435 1437 1439 1441 1442 1443 1445 1448 1452 1455 1458 1462 1464 1466 1469 1471 1473 1475 1477 1479 1481 1483 1485 1487 1488
Wind_Speed
25 18 15 15 16 18 14 11 9 10 11 12 13 13 9 13 15 10 8 7 8 8 6 5 4 2 1
24 18 16 16 17 15 12 11 10 10 12 11 21 22 14 10 10 10 8 7 9 10 8 8 7 4 5
24 20 18 19 18 17 15 15 17 14 14 17 12 15 14 20 15 12 7 5 5 6 6 4 2 2 6
22 20 18 23 21 21 18 18 20 18 18 17 18 18 20 24 18 11 6 5 5 5 4 3 2 3 3
21 22 19 18 19 20 19 18 19 14 13 15 15 17 22 20 13 9 6 5 4 3 3 4 4 4 5
22 25 22 23 23 20 19 17 11 11 13 17 27 22 23 14 11 8 6 4 4 4 4 4 4 3 3
23 23 19 15 18 18 14 12 13 13 17 22 32 26 19 15 11 7 5 4 5 4 3 3 3 3 3
19 16 14 15 16 15 11 14 13 15 19 29 26 22 20 16 11 7 4 4 5 4 3 3 3 2 2
17 17 17 21 19 16 17 15 16 18 18 28 27 24 21 17 10 6 4 4 4 3 2 2 3 2 3
12 13 15 16 17 19 17 17 17 20 20 29 31 28 18 16 13 8 4 5 5 3 2 2 3 3 3
12 14 16 14 12 18 23 23 23 24 20 29 34 31 19 25 19 13 7 5 5 4 3 3 4 5 5
12 11 9 9 10 12 15 15 17 18 19 27 32 34 24 23 20 16 12 9 8 5 4 4 6 7 7
8 6 6 6 7 8 11 13 13 14 16 26 26 29 20 16 14 9 13 12 9 7 6 6 7 7 6
6 5 5 5 6 8 10 13 14 16 18 19 16 21 20 10 7 9 11 7 10 8 9 8 8 7 6
6 5 5 7 9 11 14 16 17 18 18 19 18 17 12 9 9 9 10 9 8 9 10 9 9 7 6
6 6 8 11 11 14 14 15 15 16 17 16 14 13 13 10 8 8 10 9 9 9 10 10 8 7 6
6 7 9 11 11 12 14 16 17 16 13 13 12 10 10 10 9 10 8 9 9 9 9 8 7 7 6
Wind_Direction
290 283 284 290 279 268 258 267 278 270 253 265 265 251 264 268 284 277 265 256 265 266 276 288 286 273 260
278 271 273 279 283 268 249 263 285 268 268 263 248 249 263 239 251 266 253 248 266 274 278 287 295 240 205
262 261 264 266 265 260 258 270 278 283 273 265 260 229 217 261 274 255 241 255 266 269 282 289 301 265 237
252 259 262 263 259 252 260 275 279 274 257 252 243 259 227 249 229 220 213 244 262 265 273 284 306 287 240
248 255 251 254 266 277 285 282 281 277 248 247 245 191 185 196 182 179 205 236 244 235 240 260 264 249 246
251 248 259 265 273 273 269 268 269 280 229 246 209 220 198 179 171 181 198 213 224 239 247 254 264 255 236
247 256 265 261 263 255 250 251 265 270 218 199 189 194 177 174 175 181 195 208 221 236 253 265 268 258 233
248 253 259 249 252 256 260 258 258 254 228 190 187 182 172 173 182 186 210 200 212 230 254 271 271 253 221
249 258 255 251 250 255 260 241 237 223 216 204 181 173 167 170 181 198 210 202 221 233 246 273 273 241 196
253 255 252 247 242 237 234 243 239 229 230 209 188 172 162 180 193 205 184 212 228 206 218 228 216 194 169
252 257 257 250 241 236 241 246 244 241 239 209 190 185 178 180 196 211 216 221 214 214 209 199 188 185 186
245 247 249 245 231 227 228 234 231 236 229 211 200 198 197 183 189 211 227 221 214 208 204 185 182 183 185
228 247 253 252 231 226 227 220 214 212 209 203 211 207 207 192 185 195 215 210 207 202 199 188 177 172 173
227 235 238 232 203 204 198 190 188 178 183 191 196 200 193 175 186 210 198 200 201 197 193 187 184 182 183
209 209 199 183 175 178 179 171 168 161 161 151 147 165 174 181 205 196 196 199 184 190 188 187 190 195 200
197 189 189 183 176 167 162 153 152 145 143 140 144 163 182 184 189 194 188 190 182 180 183 186 193 199 203
183 180 183 188 183 175 169 161 148 134 136 146 154 168 182 180 183 185 185 184 181 181 184 190 199 205 209